Torna al catalogo

STARLINK-34898

AttivoComunicazioniVLEO
NORAD 65895·PAYLOAD·🇺🇸 United States

Lanciato Oct 7, 2025 da Cape Canaveral Space Force Station

Loading…

Prossimi Passaggi (prossime 24 ore)

TLE

AggiornatoSource: CelesTrak SupGP

Epoca: Sep 14, 2026, 23:22 UTC

1 65895C 25224P   26257.97409722 -.00022012  00000+0 -65009-3 0  2578
2 65895  53.1579 207.8704 0001330  95.2152 305.4170 15.34414009    16

Traccia STARLINK-34898 in tempo reale con AllMySat

Download on the App Store